{"data":{"norad_id":65854,"epoch":"2026-05-25T04:00:03.998880Z","epoch_age_seconds":64626,"freshness":"FRESH","line1":"1 65854U 25223A   26145.16671295 -.00022927  00000+0 -66970-3 0  9991","line2":"2 65854  53.1588 298.6107 0000880 105.5456 103.1425 15.34390712  5753","mean_motion":15.34390712,"eccentricity":8.8e-5,"inclination_deg":53.1588,"raan_deg":298.6107,"arg_perigee_deg":105.5456,"mean_anomaly_deg":103.1425,"bstar":-0.0006697,"rev_number":575,"period_min":93.848326162183,"perigee_km":462.12884986925,"apogee_km":463.33284261019,"semimajor_km":6840.8678462397,"source":"CELESTRAK","updated_at":"2026-05-25T13:38:20.948112Z"}}